Terug naar catalogus

COSMOS 1818 COOLANT

LostLEO
NORAD 36132·DEBRIS·🇷🇺 Russia

Gelanceerd Feb 1, 1987 vanaf Baikonur Cosmodrome

Loading…

Volgende Passages (komende 24 uur)

TLE

VerouderdSource: Space-Track

Epoch: Oct 29, 2022, 11:06 UTC

1 36132U 87011K   22302.46255699  .00000507  00000-0  21498-3 0  9996
2 36132  65.0122 328.3166 0012750 258.3167 101.6488 14.34460029718804

Volg COSMOS 1818 COOLANT in realtime met AllMySat

Download on the App Store